This is the latest recevied weather packets stored in our database for station/object SQ7IQO. If no packets are shown the sender has not sent any weather packets the latest 10 day(s).
| Time | Temp. | Humidity | Pressure | Rain* | Wind** | Luminosity | Snow |
|---|---|---|---|---|---|---|---|
| 1787491673 | 18.33° C | - | - | 0 mm | 2.68 m/s, ° | - | - |
| 1787491613 | 18.33° C | - | - | 0 mm | 2.68 m/s, ° | - | - |
| 1787491553 | 18.89° C | - | - | 0 mm | 2.24 m/s, ° | - | - |
| 1787491493 | 18.33° C | - | - | 0 mm | 1.79 m/s, ° | - | - |
| 1787491433 | 17.78° C | - | - | 0 mm | 1.79 m/s, ° | - | - |
| 1787491373 | 17.78° C | - | - | 0 mm | 1.79 m/s, ° | - | - |
| 1787491313 | 18.33° C | - | - | 0 mm | 2.24 m/s, ° | - | - |
| 1787491253 | 18.33° C | - | - | 0 mm | 1.34 m/s, ° | - | - |
| 1787491193 | 18.33° C | - | - | 0 mm | 1.79 m/s, ° | - | - |
| 1787491133 | 19.44° C | - | - | 0 mm | 3.13 m/s, ° | - | - |
| 1787491073 | 18.89° C | - | - | 0 mm | 1.79 m/s, ° | - | - |
| 1787491013 | 18.33° C | - | - | 0 mm | 0.89 m/s, ° | - | - |
| 1787490953 | 18.33° C | - | - | 0 mm | 2.68 m/s, ° | - | - |
| 1787490893 | 18.33° C | - | - | 0 mm | 2.24 m/s, ° | - | - |
| 1787490833 | 18.89° C | - | - | 0 mm | 2.24 m/s, ° | - | - |
| 1787490773 | 18.33° C | - | - | 0 mm | 2.24 m/s, ° | - | - |
| 1787490713 | 18.33° C | - | - | 0 mm | 0.89 m/s, ° | - | - |
| 1787490653 | 18.33° C | - | - | 0 mm | 1.79 m/s, ° | - | - |
| 1787490593 | 18.33° C | - | - | 0 mm | 1.34 m/s, ° | - | - |
| 1787490533 | 18.33° C | - | - | 0 mm | 0.89 m/s, ° | - | - |
| 1787490473 | 18.89° C | - | - | 0 mm | 1.34 m/s, ° | - | - |
| 1787490413 | 18.89° C | - | - | 0 mm | 1.34 m/s, ° | - | - |
| 1787490353 | 19.44° C | - | - | 0 mm | 1.79 m/s, ° | - | - |
| 1787490293 | 19.44° C | - | - | 0 mm | 1.34 m/s, ° | - | - |
| 1787490233 | 19.44° C | - | - | 0 mm | 1.79 m/s, ° | - | - |
* Rain latest hour (hover to see other rain measurements)
** Current wind speed in m/s (hover to see current wind gust speed)